カタログに戻る

SL-12 DEB

LostHEO
NORAD 29311·DEBRIS·🇷🇺 Russia

打ち上げ May 31, 1989 から Baikonur Cosmodrome

Loading…

次のパス (今後24時間)

TLE

古いSource: Space-Track

元期: Feb 5, 2024, 21:32 UTC

1 29311U 89039S   24036.89763595  .01808401  19112-6  19614-1 0  9996
2 29311  61.5992 243.3425 4469773  71.9913   1.4190  6.70608891371329

AllMySatでSL-12 DEBをリアルタイム追跡

Download on the App Store